Zurück zum Katalog

METEOR 1-5

AktivWetterPO
NORAD 4419·PAYLOAD·🇷🇺 Russia

Gestartet Jun 23, 1970 von Plesetsk Cosmodrome

Loading…

Nächste Überflüge (nächste 24 Stunden)

TLE

AktuellSource: Space-Track

Epoche: Sep 14, 2026, 15:53 UTC

1 04419U 70047A   26257.66183221  .00000139  00000-0  63051-4 0  9999
2 04419  81.2181 147.5096 0039636 157.2633 203.0309 14.16192088901408

Verfolge METEOR 1-5 in Echtzeit mit AllMySat

Download on the App Store